Location: Aghk�ilisa
(40.0189°N, 45.0097°E)
Time: 16:00:59
(UTC+00:00)

Daily predictions for brighter satellites

Satellite Brightness Start Highest point End
(mag) Time Altitude Azimuth Time Altitude Azimuth Time Altitude Azimuth
Cosmos 1271 Rocket 2.9 14:30:24 10° N 14:34:24 84° W 14:38:24 10° S
Cosmos 921 Rocket 3.6 14:30:47 10° SSW 14:35:16 66° WNW 14:39:42 10° N
Cosmos 482 Debris 4.4 14:31:38 10° NW 14:37:14 81° NE 14:40:29 10° SE
Cosmos 1726 Rocket 3.7 14:32:56 10° S 14:37:19 82° W 14:41:42 10° N
Cosmos 2082 Rocket 3.4 14:37:05 10° N 14:41:32 23° NE 14:45:57 10° ESE
Cosmos 1777 Rocket 4.3 14:39:38 10° N 14:44:38 45° ENE 14:49:35 10° SE
H-2A R/B 3.1 14:42:39 10° S 14:46:32 74° W 14:50:28 10° NNW
Abrixas rocket 3.4 14:47:57 10° W 14:50:46 33° NNW 14:53:36 10° NE
NOAA 12 4.1 14:46:40 10° SSE 14:51:56 80° ENE 14:57:16 10° N
Shenzhou-11 Module 1.9 14:49:22 10° WNW 14:52:07 61° NNE 14:54:29 13° E
ASTEX 1 3.4 14:48:12 10° NNE 14:53:09 63° E 14:58:05 10° S
ATLAS 3B R/B 3.8 14:50:49 10° SSE 14:55:34 21° ESE 15:00:15 10° ENE
COSMOS 2406 3.3 14:52:36 10° NNW 14:58:24 88° ENE 15:04:08 10° SSE
USA 116 4.1 14:55:50 10° NE 14:58:52 32° E 15:02:07 10° SSE
Cosmos 1242 Rocket 2.9 14:59:13 10° NNW 15:02:54 70° W 15:06:32 10° S
Cosmos 2058 Rocket 3.5 14:58:41 10° SSW 15:03:00 66° W 15:07:21 10° N
CENTAUR R/B 3.5 14:59:10 10° SSE 15:03:33 23° ESE 15:08:03 11° ENE
Lacrosse 5 2.7 15:01:00 10° NNW 15:05:35 33° NE 15:09:02 16° E
Cosmos 1461 3.3 15:04:09 10° NNW 15:08:04 42° NE 15:11:56 11° SE
ATLAS 5 CENTAUR R/B 4.5 15:08:23 10° NW 15:09:02 10° NNW 15:09:42 10° NNW
Cosmos 1703 3.2 15:05:06 10° N 15:09:03 89° W 15:12:56 10° S
Cosmos 1339 Rocket 4.4 15:03:15 10° S 15:09:16 71° E 15:15:24 10° NNE
EO 1 Delta rocket 4.0 15:06:18 10° SSE 15:10:42 48° ENE 15:15:27 10° N
Unknown 4.4 15:08:37 10° NNW 15:11:30 25° NNE 15:12:55 19° ENE
CZ-4 R/B 1.4 15:07:28 10° SSE 15:11:36 65° ENE 15:15:48 10° N
Unknown 2.8 15:12:48 10° NW 15:15:56 88° NE 15:18:10 18° SE
Gbstr 26 Del rocket 4.2 15:10:44 10° NW 15:16:44 58° NNE 15:22:25 17° ESE
Envisat 3.2 15:12:13 10° S 15:17:17 78° WSW 15:22:23 10° NNW
Cosmos 2278 Rocket 2.5 15:13:35 10° SSW 15:19:14 71° WNW 15:24:55 10° NNE
COSMO-SKYMED 1 2.8 15:15:52 10° N 15:20:12 74° WNW 15:24:32 10° SSW
FALCON 9 DEB 4.4 15:17:17 10° NNW 15:20:16 26° NNE 15:21:16 22° ENE
H-2A R/B 4.1 15:21:42 11° NE 15:21:42 11° NE 15:22:22 10° NE
BREEZE M DEB (TANK) 2.5 15:19:43 10° NW 15:22:14 51° NE 15:25:40 20° ESE
Cosmos 2297 4.2 15:17:51 10° S 15:23:03 38° ESE 15:28:18 10° NE
FengYun 1-2 T 4.3 15:18:21 10° SSE 15:23:59 88° W 15:29:38 10° NNW
Okean-O 4.3 15:19:56 10° SSW 15:24:03 37° W 15:28:11 10° NNW
Cosmos 1908 4.1 15:21:12 10° SSW 15:25:00 53° W 15:28:50 10° N
Cosmos 1726 4.1 15:21:54 10° SW 15:25:10 31° WNW 15:28:27 10° NNW
Cosmos 1605 Rocket 3.9 15:21:24 10° N 15:27:35 89° WSW 15:33:41 10° S
Meteor 1-11 4.5 15:22:53 10° NNW 15:28:41 76° W 15:34:28 10° S
USA 238 DEB 3.7 15:22:05 10° SSW 15:28:45 87° WNW 15:35:41 10° NNE
USA 238 3.7 15:22:11 10° SSW 15:28:52 88° WNW 15:35:46 10° NE
CSL-04 Rocket 3.6 15:25:27 10° SSE 15:30:59 82° ENE 15:36:30 10° NNW
Falcon 9 debris 3.9 15:32:01 10° NW 15:35:14 35° NNE 15:35:36 34° NE
Unknown 4.3 15:32:13 10° NNW 15:35:20 29° NNE 15:35:38 28° NE
Cosmos 1727 Rocket 3.9 15:30:14 10° S 15:36:23 80° E 15:42:34 10° N
Cosmos 2173 Rocket 4.2 15:39:15 10° N 15:45:15 46° ENE 15:51:07 10° SSE
DMSP B5D1-3 4.4 15:41:53 10° NNE 15:47:02 82° ESE 15:52:11 10° SSW
NOAA 11 4.1 15:42:54 10° SSE 15:48:18 70° ENE 15:53:43 10° N
Cosmos 1076 Rocket 3.4 15:44:18 10° N 15:48:38 69° E 15:52:56 10° SSE
Cosmos 44 3.1 15:45:22 10° SSW 15:50:21 73° ESE 15:52:49 29° NE
Delta 2 Rocket 3.6 15:48:34 10° WSW 15:51:51 38° S 15:51:53 38° S
NOSS 3-2 (A) 3.6 15:46:23 10° SW 15:52:04 71° NW 15:58:28 10° NNE
Cosmos 1802 Rocket 4.3 15:47:21 10° N 15:53:30 45° ENE 15:56:41 26° SE
YAOGAN 6 4.4 15:51:05 10° SSW 15:54:25 33° W 15:57:45 10° NNW
Cosmos 1833 Rocket 3.0 15:49:41 10° NNW 15:55:16 67° WSW 16:00:50 10° S
Cosmos 1812 Rocket 4.0 15:51:21 10° SSW 15:55:43 62° W 16:00:09 10° N
Unknown 3.9 15:53:46 10° NW 15:56:35 41° N 15:56:35 41° N
Cosmos 967 Rocket 4.4 15:51:07 10° NNW 15:57:37 81° ENE 16:01:51 23° SE
Ariane Rocket 2.9 15:55:31 14° SSE 15:59:55 73° ENE 16:05:00 10° N
Cosmos 2058 2.8 15:56:09 10° N 16:00:21 66° E 16:00:26 66° E
Cosmos 1000 Rocket 4.4 15:55:53 10° S 16:01:58 67° E 16:08:11 10° NNE
NOSS 3-3 (A) 4.5 15:56:31 10° NNW 16:04:11 77° NE 16:09:15 27° SE
NOSS 3-3 (C) 4.5 15:56:37 10° NNW 16:04:16 77° NE 16:09:17 27° SE
Cosmos 468 Rocket 3.9 16:00:10 10° S 16:05:23 67° ESE 16:07:45 33° NE
YAOGAN 1 3.9 16:01:43 10° SSW 16:05:45 39° W 16:09:50 10° NNW
SL-24 R/B 4.5 16:01:16 10° NNE 16:06:44 55° E 16:11:20 10° S
IRS-1A Rocket 4.1 16:03:42 22° SSE 16:07:17 73° ENE 16:12:47 10° N
Cosmos 2100 Rocket 3.8 16:06:23 10° N 16:12:35 83° E 16:18:43 10° S
Cosmos 1939 Rocket 3.4 16:13:31 24° S 16:15:44 57° W 16:19:44 10° NNW
Cosmos 1300 4.0 16:13:04 10° SSW 16:16:39 39° WNW 16:20:16 10° N
NOSS 3-2 (C) 3.5 16:12:04 10° SW 16:17:45 72° NW 16:22:04 21° NNE
CZ-3 Stage 3 3.5 16:17:38 10° SW 16:18:51 13° SSW 16:18:51 13° SSW
CZ-2D R/B 4.4 16:16:35 15° SSW 16:19:34 43° W 16:23:17 10° NNW
ADEOS Rocket 3.5 16:12:40 10° NNE 16:19:58 49° E 16:26:38 10° S
Cosmos 1937 Rocket 4.5 16:15:52 10° N 16:19:01 33° NNE 16:19:01 33° NNE
Cosmos 990 Rocket 4.3 16:16:19 10° NNW 16:20:35 52° NNE 16:20:35 52° NNE
Cosmos 2082 Rocket 2.8 16:20:25 10° NNW 16:25:59 55° WSW 16:29:53 19° S
BREEZE-M DEB (TANK) 3.5 16:19:07 10° WSW 16:27:35 44° NNW 16:28:11 41° N
Cosmos 2016 Rocket 3.9 16:23:46 10° N 16:30:05 73° E 16:30:43 67° SE
Cosmos 1763 Rocket 3.9 16:38:17 10° SSW 16:42:38 58° SW 16:42:38 58° SW
ATLAS 3B R/B 2.7 16:38:50 10° SW 16:45:35 72° NW 16:47:45 45° NNE
Lacrosse 5 2.7 16:43:50 10° NW 16:48:16 45° WSW 16:48:16 45° WSW
SJ 16-02 3.7 16:47:42 10° NNW 16:48:44 17° NNW 16:48:44 17° NNW
CENTAUR R/B 2.9 16:47:40 10° SW 16:53:28 59° NW 16:55:19 44° N
H-2A R/B 3.8 17:02:20 26° N 17:02:20 26° N 17:04:35 10° NNW
Cosmos 2061 Rocket 4.4 16:57:28 10° NNW 17:03:34 58° W 17:04:19 54° WSW
